Weather History for Lubbock, TX

Change the Weather History Date:

Sunday, August 18, 2013

  Actual Average Record
Temperature  
Mean Temperature 78 °F 79 °F  
Max Temperature 90 °F 91 °F 103 °F (1994)
Min Temperature 66 °F 67 °F 55 °F (1943)
Degree Days  
Heating Degree Days 0 0  
Month to date heating degree days 0 0  
Since 1 June heating degree days 0 2  
Since 1 July heating degree days 0 0  
Cooling Degree Days 13 14  
Month to date cooling degree days 295 265  
Year to date cooling degree days 1534 1358  
Since 1 June cooling degree days 1219 1112  
Growing Degree Days 28 (Base 50)    
Moisture  
Dew Point 60 °F    
Average Humidity 63    
Maximum Humidity 87    
Minimum Humidity 38    
Precipitation  
Precipitation 0.00 in 0.06 in 0.94 in (1963)
Month to date precipitation 1.32 1.09  
Year to date precipitation 9.78 12.25  
Snow  
Snow 0.00 in 0.00 in 0.00 in (2002)
Month to date snowfall 0.0 0.0  
Since 1 June snowfall 0.0 0.0  
Since 1 July snowfall 0.0 0.0  
Snow Depth 0.00 in    
Sea Level Pressure  
Sea Level Pressure 29.95 in    
Wind  
Wind Speed 12 mph (SSE)    
Max Wind Speed 18 mph    
Max Gust Speed 23 mph    
Visibility 10 miles    
Events      
T = Trace of Precipitation, MM = Missing Value Source: NWS Daily Summary

Daily Weather History Graph

Daily Weather History Graph

Search for Another Location

Airport:

Trip Planner

Search our weather history database for the weather conditions in past years. The results will help you decide how hot, cold, wet, or windy it might be!

Date:

Astronomy

Aug. 18, 2013 Rise Set
Actual Time 7:11 AM CDT 8:29 PM CDT
Civil Twilight 6:45 AM CDT 8:55 PM CDT
Nautical Twilight 6:14 AM CDT 9:26 PM CDT
Astronomical Twilight 5:41 AM CDT 9:59 PM CDT
Moon 6:35 PM CDT (8/18) 4:27 AM CDT (8/18)
Length of Visible Light 14h 10m
Length of Day
13h 18m
Waxing Gibbous, 92% of the Moon is Illuminated
Aug 18
Waxing Gibbous
Aug 20
Full
Aug 28
Last Quarter
Sep 5
New
Sep 12
First Quarter

Hourly Weather History & Observations

Time (CDT) Temp. Heat Index Dew Point Humidity Pressure Visibility Wind Dir Wind Speed Gust Speed Precip Events Conditions
12:53 AM 71.1 °F - 62.1 °F 73% 29.98 in 10.0 mi ESE 11.5 mph - N/A   Partly Cloudy
1:53 AM 70.0 °F - 62.1 °F 76% 29.98 in 10.0 mi SE 9.2 mph - N/A   Partly Cloudy
2:53 AM 69.1 °F - 62.1 °F 78% 29.96 in 10.0 mi SE 9.2 mph - N/A   Scattered Clouds
3:53 AM 68.0 °F - 62.1 °F 81% 29.97 in 10.0 mi SE 9.2 mph - N/A   Scattered Clouds
4:53 AM 66.9 °F - 62.1 °F 84% 29.96 in 10.0 mi SSE 8.1 mph - N/A   Scattered Clouds
5:53 AM 66.9 °F - 61.0 °F 81% 29.96 in 10.0 mi SSE 9.2 mph - N/A   Scattered Clouds
6:53 AM 66.9 °F - 59.0 °F 76% 29.96 in 10.0 mi South 8.1 mph - N/A   Scattered Clouds
7:53 AM 66.0 °F - 60.1 °F 81% 29.98 in 10.0 mi SSE 6.9 mph - N/A   Scattered Clouds
8:53 AM 70.0 °F - 59.0 °F 68% 29.99 in 10.0 mi SSE 11.5 mph - N/A   Partly Cloudy
9:53 AM 73.9 °F - 59.0 °F 59% 29.99 in 10.0 mi South 13.8 mph - N/A   Partly Cloudy
10:53 AM 77.0 °F - 57.9 °F 52% 29.99 in 10.0 mi South 16.1 mph 21.9 mph N/A   Partly Cloudy
11:53 AM 80.1 °F 80.6 °F 57.9 °F 47% 29.99 in 10.0 mi South 15.0 mph - N/A   Clear
12:53 PM 82.0 °F 82.1 °F 59.0 °F 45% 29.99 in 10.0 mi South 11.5 mph 19.6 mph N/A   Clear
1:53 PM 84.9 °F 84.4 °F 59.0 °F 41% 29.96 in 10.0 mi SSE 10.4 mph - N/A   Clear
2:53 PM 86.0 °F 86.1 °F 61.0 °F 43% 29.95 in 10.0 mi SSE 10.4 mph - N/A   Clear
3:53 PM 89.1 °F 89.3 °F 62.1 °F 40% 29.92 in 10.0 mi SSE 13.8 mph - N/A   Clear
4:53 PM 89.1 °F 89.0 °F 61.0 °F 39% 29.90 in 10.0 mi SSE 18.4 mph - N/A   Partly Cloudy
5:53 PM 90.0 °F 89.7 °F 60.1 °F 37% 29.89 in 10.0 mi South 15.0 mph - N/A   Partly Cloudy
6:53 PM 88.0 °F 87.9 °F 61.0 °F 40% 29.89 in 10.0 mi SE 12.7 mph - N/A   Partly Cloudy
7:53 PM 84.0 °F 84.5 °F 62.1 °F 47% 29.90 in 10.0 mi SE 12.7 mph - N/A   Partly Cloudy
8:53 PM 81.0 °F 81.3 °F 59.0 °F 47% 29.90 in 10.0 mi SE 13.8 mph - N/A   Partly Cloudy
9:53 PM 80.1 °F 80.7 °F 59.0 °F 48% 29.92 in 10.0 mi SE 11.5 mph - N/A   Clear
10:53 PM 75.9 °F - 60.1 °F 58% 29.95 in 10.0 mi SE 9.2 mph - N/A   Clear
11:53 PM 75.0 °F - 59.0 °F 57% 29.96 in 10.0 mi SSE 11.5 mph - N/A   Clear